User: anonymous   Login
Location: Bovenkerk
(52.2915°N, 4.8336°E)
Time: 12:29:26
(UTC+00:00)
Language:

Cosmos 2278 - Orbit

View from above orbital plane
View from above orbital plane
View from above satellite
View from above satellite

Ground track
Ground track

The orbit data is extracted from the following two-line orbital elements,

1 23087U 94023A   20188.70506977 -.00000312 +00000-0 -13994-3 0  9995
2 23087 071.0514 187.4170 0010877 303.3035 056.7045 14.13803897351918
Epoch (UTC): 06 July 2020 16:55:18
Eccentricity: 0.0010877
inclination: 71.0514°
perigee height: 838 km
apogee height: 854 km
right ascension of ascending node: 187.4170°
argument of perigee: 303.3035°
revolutions per day: 14.13803897
mean anomaly at epoch: 56.7045°
orbit number at epoch: 35191

The dashed part of the orbit path shows where the satellite is in the earth's shadow,  

DLR